| time (UTC) | temp F | wind direction | speed MPH | gust MPH | rain 1hr in | rain 24hr in | rain mn in | humidity % | barometer mb |
| 20260508205802 | 66 | 201 | 5.0 | 10.0 | 0.00 | 0.00 | 0.00 | 41 | 1005.8 |
| 20260508205244 | 66 | 268 | 5.0 | 13.0 | 0.00 | 0.00 | 0.00 | 42 | 1006.0 |
| 20260508204745 | 65 | 182 | 3.0 | 13.0 | 0.00 | 0.00 | 0.00 | 44 | 1006.1 |
| 20260508204012 | 64 | 200 | 3.0 | 8.0 | 0.00 | 0.00 | 0.00 | 46 | 1006.1 |
| 20260508203506 | 65 | 177 | 3.0 | 8.0 | 0.00 | 0.00 | 0.00 | 43 | 1006.2 |
| 20260508202953 | 65 | 213 | 4.0 | 9.0 | 0.00 | 0.00 | 0.00 | 43 | 1006.2 |
| 20260508202450 | 66 | 265 | 4.0 | 9.0 | 0.00 | 0.00 | 0.00 | 41 | 1006.2 |
| 20260508201944 | 67 | 214 | 5.0 | 9.0 | 0.00 | 0.00 | 0.00 | 40 | 1006.3 |
| 20260508201434 | 68 | 157 | 4.0 | 10.0 | 0.00 | 0.00 | 0.00 | 41 | 1006.3 |
| 20260508201153 | 67 | 178 | 4.0 | 10.0 | 0.00 | 0.00 | 0.00 | 38 | 1006.4 |
| 20260508200426 | 67 | 266 | 4.0 | 9.0 | 0.00 | 0.00 | 0.00 | 38 | 1006.5 |
| 20260508195920 | 68 | 225 | 5.0 | 23.0 | 0.00 | 0.00 | 0.00 | 40 | 1006.8 |
| 20260508195409 | 68 | 257 | 5.0 | 23.0 | 0.00 | 0.00 | 0.00 | 37 | 1006.9 |
| 20260508194909 | 68 | 218 | 4.0 | 11.0 | 0.00 | 0.00 | 0.00 | 35 | 1006.7 |
| 20260508194621 | 68 | 269 | 5.0 | 12.0 | 0.00 | 0.00 | 0.00 | 37 | 1006.9 |
| 20260508194111 | 67 | 252 | 5.0 | 12.0 | 0.00 | 0.00 | 0.00 | 36 | 1006.9 |
| 20260508193615 | 67 | 200 | 4.0 | 16.0 | 0.00 | 0.00 | 0.00 | 39 | 1007.0 |
| 20260508192844 | 66 | 191 | 5.0 | 16.0 | 0.00 | 0.00 | 0.00 | 39 | 1007.0 |
| 20260508192331 | 66 | 248 | 4.0 | 12.0 | 0.00 | 0.00 | 0.00 | 40 | 1007.2 |
| 20260508191828 | 66 | 207 | 5.0 | 12.0 | 0.00 | 0.00 | 0.00 | 40 | 1007.2 |
| 20260508191320 | 66 | 196 | 4.0 | 11.0 | 0.00 | 0.00 | 0.00 | 41 | 1007.3 |
| 20260508190813 | 66 | 146 | 3.0 | 10.0 | 0.00 | 0.00 | 0.00 | 42 | 1007.4 |
| 20260508190302 | 65 | 333 | 2.0 | 7.0 | 0.00 | 0.00 | 0.00 | 41 | 1007.5 |
| 20260508185758 | 64 | 273 | 3.0 | 13.0 | 0.00 | 0.00 | 0.00 | 41 | 1007.6 |
| 20260508185249 | 64 | 236 | 5.0 | 13.0 | 0.00 | 0.00 | 0.00 | 40 | 1007.8 |
| 20260508184744 | 65 | 214 | 5.0 | 13.0 | 0.00 | 0.00 | 0.00 | 41 | 1007.8 |
| 20260508184501 | 65 | 242 | 5.0 | 13.0 | 0.00 | 0.00 | 0.00 | 42 | 1007.8 |
| 20260508183732 | 64 | 229 | 5.0 | 14.0 | 0.00 | 0.00 | 0.00 | 41 | 1007.8 |
| 20260508183447 | 65 | 236 | 5.0 | 14.0 | 0.00 | 0.00 | 0.00 | 42 | 1008.0 |
| 20260508182720 | 65 | 211 | 6.0 | 16.0 | 0.00 | 0.00 | 0.00 | 39 | 1007.9 |
| 20260508182209 | 65 | 262 | 7.0 | 18.0 | 0.00 | 0.00 | 0.00 | 37 | 1007.9 |
| 20260508181707 | 65 | 235 | 4.0 | 18.0 | 0.00 | 0.00 | 0.00 | 39 | 1008.0 |
| 20260508181202 | 66 | 178 | 3.0 | 10.0 | 0.00 | 0.00 | 0.00 | 40 | 1008.0 |
| 20260508181133 | 65 | 335 | 3.0 | 11.0 | 0.00 | 0.00 | 0.00 | 42 | 1007.9 |
| 20260508180150 | 65 | 254 | 3.0 | 11.0 | 0.00 | 0.00 | 0.00 | 42 | 1008.0 |
| 20260508175639 | 65 | 227 | 3.0 | 8.0 | 0.00 | 0.00 | 0.00 | 43 | 1008.1 |
| 20260508175136 | 64 | 148 | 4.0 | 10.0 | 0.00 | 0.00 | 0.00 | 45 | 1008.4 |
| 20260508174628 | 64 | 196 | 4.0 | 10.0 | 0.00 | 0.00 | 0.00 | 44 | 1008.5 |
| 20260508174122 | 64 | 254 | 4.0 | 8.0 | 0.00 | 0.00 | 0.00 | 43 | 1008.6 |
| 20260508173610 | 65 | 238 | 4.0 | 11.0 | 0.00 | 0.00 | 0.00 | 43 | 1008.7 |
| 20260508173105 | 65 | 261 | 4.0 | 11.0 | 0.00 | 0.00 | 0.00 | 41 | 1008.7 |
| 20260508172558 | 64 | 213 | 4.0 | 9.0 | 0.00 | 0.00 | 0.00 | 48 | 1008.9 |
| 20260508172536 | 64 | 177 | 5.0 | 11.0 | 0.00 | 0.00 | 0.00 | 43 | 1008.9 |
| 20260508171539 | 64 | 194 | 5.0 | 11.0 | 0.00 | 0.00 | 0.00 | 43 | 1009.0 |
| 20260508171036 | 64 | 280 | 4.0 | 10.0 | 0.00 | 0.00 | 0.00 | 42 | 1009.0 |
| 20260508170528 | 63 | 175 | 4.0 | 12.0 | 0.00 | 0.00 | 0.00 | 43 | 1009.1 |
| 20260508170022 | 62 | 227 | 4.0 | 12.0 | 0.00 | 0.00 | 0.00 | 44 | 1009.2 |
| 20260508165509 | 62 | 236 | 3.0 | 8.0 | 0.00 | 0.00 | 0.00 | 46 | 1009.4 |
| 20260508165007 | 62 | 269 | 4.0 | 9.0 | 0.00 | 0.00 | 0.00 | 44 | 1009.5 |
| 20260508164724 | 62 | 186 | 4.0 | 9.0 | 0.00 | 0.00 | 0.00 | 48 | 1009.5 |
| 20260508163956 | 62 | 217 | 4.0 | 11.0 | 0.00 | 0.00 | 0.00 | 45 | 1009.7 |
| 20260508163715 | 61 | 334 | 4.0 | 11.0 | 0.00 | 0.00 | 0.00 | 45 | 1009.8 |
| 20260508162944 | 61 | 171 | 5.0 | 10.0 | 0.00 | 0.00 | 0.00 | 46 | 1009.8 |
| 20260508162438 | 61 | 195 | 5.0 | 10.0 | 0.00 | 0.00 | 0.00 | 44 | 1009.8 |
| 20260508161927 | 61 | 215 | 5.0 | 8.0 | 0.00 | 0.00 | 0.00 | 44 | 1009.8 |
| 20260508161426 | 61 | 280 | 4.0 | 8.0 | 0.00 | 0.00 | 0.00 | 43 | 1009.9 |
| 20260508160920 | 61 | 273 | 3.0 | 7.0 | 0.00 | 0.00 | 0.00 | 44 | 1009.9 |
| 20260508160418 | 61 | 294 | 3.0 | 9.0 | 0.00 | 0.00 | 0.00 | 44 | 1010.0 |
| 20260508155918 | 60 | 279 | 2.0 | 9.0 | 0.00 | 0.00 | 0.00 | 44 | 1009.9 |
| 20260508155415 | 60 | 194 | 3.0 | 7.0 | 0.00 | 0.00 | 0.00 | 49 | 1010.0 |
| 20260508154914 | 60 | 141 | 3.0 | 6.0 | 0.00 | 0.00 | 0.00 | 49 | 1010.0 |
| 20260508154412 | 60 | 197 | 2.0 | 6.0 | 0.00 | 0.00 | 0.00 | 50 | 1010.1 |
| 20260508153912 | 59 | 306 | 2.0 | 6.0 | 0.00 | 0.00 | 0.00 | 49 | 1010.1 |
| 20260508153412 | 59 | 311 | 3.0 | 5.0 | 0.00 | 0.00 | 0.00 | 50 | 1010.1 |
| 20260508152910 | 58 | 9 | 3.0 | 7.0 | 0.00 | 0.00 | 0.00 | 50 | 1010.1 |
| 20260508152409 | 59 | 273 | 3.0 | 7.0 | 0.00 | 0.00 | 0.00 | 50 | 1010.2 |
| 20260508152352 | 59 | 282 | 2.0 | 6.0 | 0.00 | 0.00 | 0.00 | 52 | 1010.2 |
| 20260508151410 | 58 | 146 | 2.0 | 5.0 | 0.00 | 0.00 | 0.00 | 52 | 1010.3 |
| 20260508150910 | 57 | 30 | 3.0 | 8.0 | 0.00 | 0.00 | 0.00 | 52 | 1010.4 |
| 20260508150631 | 57 | 173 | 4.0 | 8.0 | 0.00 | 0.00 | 0.00 | 52 | 1010.4 |
| 20260508145910 | 56 | 280 | 3.0 | 7.0 | 0.00 | 0.00 | 0.00 | 52 | 1010.4 |
| 20260508145412 | 56 | 24 | 2.0 | 6.0 | 0.00 | 0.00 | 0.00 | 53 | 1010.4 |
| 20260508145142 | 56 | 323 | 3.0 | 6.0 | 0.00 | 0.00 | 0.00 | 53 | 1010.4 |
| 20260508144412 | 56 | 317 | 2.0 | 5.0 | 0.00 | 0.00 | 0.00 | 54 | 1010.4 |
| 20260508143910 | 56 | 210 | 2.0 | 5.0 | 0.00 | 0.00 | 0.00 | 57 | 1010.4 |
| 20260508143404 | 56 | 159 | 2.0 | 5.0 | 0.00 | 0.00 | 0.00 | 56 | 1010.5 |
| 20260508142858 | 55 | 277 | 3.0 | 7.0 | 0.00 | 0.00 | 0.00 | 59 | 1010.6 |
| 20260508142347 | 55 | 105 | 3.0 | 7.0 | 0.00 | 0.00 | 0.00 | 57 | 1010.6 |
| 20260508141846 | 56 | 21 | 2.0 | 6.0 | 0.00 | 0.00 | 0.00 | 55 | 1010.6 |
| 20260508141333 | 56 | 57 | 2.0 | 6.0 | 0.00 | 0.00 | 0.00 | 62 | 1010.7 |
| 20260508140834 | 55 | 205 | 3.0 | 6.0 | 0.00 | 0.00 | 0.00 | 64 | 1010.7 |
| 20260508140328 | 55 | 285 | 1.0 | 5.0 | 0.00 | 0.00 | 0.00 | 63 | 1010.7 |
| 20260508135817 | 55 | 115 | 1.0 | 4.0 | 0.00 | 0.00 | 0.00 | 64 | 1010.7 |
| 20260508135312 | 54 | 283 | 1.0 | 4.0 | 0.00 | 0.00 | 0.00 | 66 | 1010.8 |
| 20260508134810 | 53 | 96 | 2.0 | 5.0 | 0.00 | 0.00 | 0.00 | 67 | 1010.8 |
| 20260508134304 | 53 | 32 | 2.0 | 5.0 | 0.00 | 0.00 | 0.00 | 69 | 1010.8 |
| 20260508133758 | 53 | 321 | 2.0 | 4.0 | 0.00 | 0.00 | 0.00 | 70 | 1010.8 |
| 20260508133252 | 53 | 242 | 1.0 | 4.0 | 0.00 | 0.00 | 0.00 | 71 | 1010.9 |
| 20260508132746 | 52 | 343 | 2.0 | 4.0 | 0.00 | 0.00 | 0.00 | 72 | 1010.8 |
| 20260508132235 | 52 | 51 | 2.0 | 5.0 | 0.00 | 0.00 | 0.00 | 72 | 1010.9 |
| 20260508131734 | 51 | 12 | 1.0 | 5.0 | 0.00 | 0.00 | 0.00 | 73 | 1010.9 |
| 20260508131228 | 51 | 294 | 1.0 | 3.0 | 0.00 | 0.00 | 0.00 | 76 | 1010.9 |
| 20260508130722 | 50 | 186 | 1.0 | 3.0 | 0.00 | 0.00 | 0.00 | 76 | 1010.8 |
| 20260508130213 | 50 | 284 | 1.0 | 2.0 | 0.00 | 0.00 | 0.00 | 77 | 1010.8 |
| 20260508125706 | 49 | 244 | 1.0 | 2.0 | 0.00 | 0.00 | 0.00 | 77 | 1010.9 |
| 20260508125205 | 49 | 221 | 1.0 | 2.0 | 0.00 | 0.00 | 0.00 | 78 | 1010.9 |
| 20260508124658 | 49 | 40 | 1.0 | 3.0 | 0.00 | 0.00 | 0.00 | 78 | 1010.9 |
| 20260508124153 | 49 | 322 | 2.0 | 3.0 | 0.00 | 0.00 | 0.00 | 79 | 1010.8 |
| 20260508123642 | 49 | 297 | 1.0 | 3.0 | 0.00 | 0.00 | 0.00 | 79 | 1010.8 |
| 20260508123137 | 49 | 275 | 0.0 | 3.0 | 0.00 | 0.00 | 0.00 | 80 | 1010.8 |
| 20260508122630 | 49 | 232 | 1.0 | 3.0 | 0.00 | 0.00 | 0.00 | 81 | 1010.7 |
| 20260508122124 | 49 | 215 | 1.0 | 3.0 | 0.00 | 0.00 | 0.00 | 81 | 1010.7 |
| 20260508121614 | 49 | 225 | 0.0 | 1.0 | 0.00 | 0.00 | 0.00 | 82 | 1010.7 |
| 20260508121112 | 48 | 225 | 0.0 | 1.0 | 0.00 | 0.00 | 0.00 | 84 | 1010.7 |
| 20260508120606 | 47 | 225 | 0.0 | 0.0 | 0.00 | 0.00 | 0.00 | 87 | 1010.7 |
| 20260508120100 | 46 | 218 | 0.0 | 0.0 | 0.00 | 0.00 | 0.00 | 88 | 1010.6 |
| 20260508115554 | 45 | 218 | 0.0 | 2.0 | 0.00 | 0.00 | 0.00 | 89 | 1010.6 |
| 20260508115041 | 44 | 218 | 1.0 | 2.0 | 0.00 | 0.00 | 0.00 | 90 | 1010.5 |
| 20260508114542 | 44 | 218 | 0.0 | 2.0 | 0.00 | 0.00 | 0.00 | 90 | 1010.4 |
| 20260508114036 | 43 | 323 | 0.0 | 1.0 | 0.00 | 0.00 | 0.00 | 92 | 1010.2 |
| 20260508113530 | 42 | 323 | 0.0 | 0.0 | 0.00 | 0.00 | 0.00 | 91 | 1010.2 |
| 20260508113024 | 42 | 323 | 0.0 | 0.0 | 0.00 | 0.00 | 0.00 | 91 | 1010.2 |
| 20260508112518 | 42 | 323 | 0.0 | 0.0 | 0.00 | 0.00 | 0.00 | 91 | 1010.1 |
| 20260508112012 | 41 | 323 | 0.0 | 0.0 | 0.00 | 0.00 | 0.00 | 91 | 1010.1 |
| 20260508111502 | 41 | 323 | 0.0 | 0.0 | 0.00 | 0.00 | 0.00 | 92 | 1010.0 |
| 20260508111000 | 40 | 323 | 0.0 | 0.0 | 0.00 | 0.00 | 0.00 | 91 | 1010.0 |
| 20260508110453 | 40 | 323 | 0.0 | 0.0 | 0.00 | 0.00 | 0.00 | 91 | 1010.0 |
| 20260508110216 | 40 | 323 | 0.0 | 0.0 | 0.00 | 0.00 | 0.00 | 91 | 1010.0 |
| 20260508105442 | 40 | 323 | 0.0 | 0.0 | 0.00 | 0.00 | 0.00 | 90 | 1009.9 |
| 20260508104931 | 40 | 323 | 0.0 | 0.0 | 0.00 | 0.00 | 0.00 | 90 | 1009.9 |
| 20260508104430 | 40 | 323 | 0.0 | 0.0 | 0.00 | 0.00 | 0.00 | 90 | 1009.9 |
| 20260508103924 | 40 | 323 | 0.0 | 0.0 | 0.00 | 0.00 | 0.00 | 90 | 1009.8 |
| 20260508103418 | 40 | 323 | 0.0 | 0.0 | 0.00 | 0.00 | 0.00 | 90 | 1009.8 |
| 20260508102912 | 40 | 323 | 0.0 | 0.0 | 0.00 | 0.00 | 0.00 | 90 | 1009.8 |
| 20260508102405 | 40 | 323 | 0.0 | 0.0 | 0.00 | 0.00 | 0.00 | 90 | 1009.8 |
| 20260508101900 | 40 | 323 | 0.0 | 0.0 | 0.00 | 0.00 | 0.00 | 90 | 1009.8 |
| 20260508101347 | 40 | 323 | 0.0 | 0.0 | 0.00 | 0.00 | 0.00 | 89 | 1009.8 |
| 20260508100847 | 41 | 323 | 0.0 | 0.0 | 0.00 | 0.00 | 0.00 | 89 | 1009.7 |
| 20260508100342 | 41 | 323 | 0.0 | 0.0 | 0.00 | 0.00 | 0.00 | 89 | 1009.8 |
| 20260508100058 | 41 | 323 | 0.0 | 0.0 | 0.00 | 0.00 | 0.00 | 89 | 1009.7 |
| 20260508095329 | 41 | 323 | 0.0 | 0.0 | 0.00 | 0.00 | 0.00 | 88 | 1009.7 |
| 20260508094817 | 41 | 323 | 0.0 | 2.0 | 0.00 | 0.00 | 0.00 | 88 | 1009.8 |
| 20260508094318 | 41 | 323 | 1.0 | 2.0 | 0.00 | 0.00 | 0.00 | 88 | 1009.8 |
| 20260508093812 | 41 | 305 | 0.0 | 2.0 | 0.00 | 0.00 | 0.00 | 88 | 1009.8 |
| 20260508093306 | 42 | 277 | 0.0 | 0.0 | 0.00 | 0.00 | 0.00 | 87 | 1009.8 |
| 20260508092800 | 42 | 277 | 0.0 | 0.0 | 0.00 | 0.00 | 0.00 | 87 | 1009.7 |
| 20260508092254 | 42 | 277 | 0.0 | 3.0 | 0.00 | 0.00 | 0.00 | 87 | 1009.7 |
| 20260508091748 | 42 | 277 | 1.0 | 3.0 | 0.00 | 0.00 | 0.00 | 87 | 1009.8 |
| 20260508091238 | 42 | 277 | 1.0 | 3.0 | 0.00 | 0.00 | 0.00 | 87 | 1009.8 |
| 20260508090736 | 42 | 312 | 1.0 | 3.0 | 0.00 | 0.00 | 0.00 | 86 | 1009.9 |
| 20260508090230 | 42 | 277 | 0.0 | 0.0 | 0.00 | 0.00 | 0.00 | 86 | 1009.8 |
| 20260508085723 | 43 | 277 | 0.0 | 1.0 | 0.00 | 0.00 | 0.00 | 86 | 1009.8 |
| 20260508085218 | 43 | 277 | 0.0 | 3.0 | 0.00 | 0.00 | 0.00 | 85 | 1009.8 |
| 20260508084926 | 43 | 277 | 1.0 | 3.0 | 0.00 | 0.00 | 0.00 | 85 | 1009.8 |
| 20260508084206 | 43 | 269 | 1.0 | 3.0 | 0.00 | 0.00 | 0.00 | 85 | 1009.8 |
| 20260508083700 | 43 | 269 | 1.0 | 3.0 | 0.00 | 0.00 | 0.00 | 84 | 1009.8 |
| 20260508083418 | 44 | 273 | 1.0 | 3.0 | 0.00 | 0.00 | 0.00 | 84 | 1009.8 |
| 20260508082648 | 44 | 293 | 1.0 | 4.0 | 0.00 | 0.00 | 0.00 | 84 | 1009.8 |
| 20260508082137 | 44 | 271 | 1.0 | 4.0 | 0.00 | 0.00 | 0.00 | 83 | 1009.9 |
| 20260508081636 | 44 | 290 | 1.0 | 3.0 | 0.00 | 0.00 | 0.00 | 83 | 1009.9 |
| 20260508081126 | 44 | 309 | 1.0 | 3.0 | 0.00 | 0.00 | 0.00 | 83 | 1010.0 |
| 20260508080624 | 44 | 273 | 1.0 | 2.0 | 0.00 | 0.00 | 0.00 | 82 | 1010.0 |
| 20260508080118 | 45 | 285 | 1.0 | 3.0 | 0.00 | 0.00 | 0.00 | 82 | 1010.1 |
| 20260508075840 | 45 | 294 | 1.0 | 4.0 | 0.00 | 0.00 | 0.00 | 82 | 1010.0 |
| 20260508075105 | 45 | 196 | 1.0 | 4.0 | 0.00 | 0.00 | 0.00 | 82 | 1009.9 |
| 20260508074553 | 45 | 261 | 2.0 | 5.0 | 0.00 | 0.00 | 0.00 | 81 | 1010.0 |
| 20260508074315 | 46 | 263 | 2.0 | 5.0 | 0.00 | 0.00 | 0.00 | 81 | 1010.2 |
| 20260508073630 | 46 | 241 | 1.0 | 5.0 | 0.00 | 0.00 | 0.00 | 81 | 1010.2 |
| 20260508072535 | 46 | 255 | 2.0 | 5.0 | 0.00 | 0.00 | 0.00 | 81 | 1010.2 |
| 20260508072026 | 46 | 234 | 2.0 | 6.0 | 0.00 | 0.00 | 0.00 | 81 | 1010.3 |
| 20260508071523 | 45 | 266 | 2.0 | 6.0 | 0.00 | 0.00 | 0.00 | 81 | 1010.2 |
| 20260508071018 | 45 | 267 | 2.0 | 5.0 | 0.00 | 0.00 | 0.00 | 81 | 1010.3 |
| 20260508070738 | 45 | 255 | 1.0 | 5.0 | 0.00 | 0.00 | 0.00 | 82 | 1010.2 |
| 20260508070228 | 45 | 236 | 1.0 | 5.0 | 0.00 | 0.00 | 0.00 | 81 | 1010.3 |
| 20260508065500 | 45 | 244 | 1.0 | 5.0 | 0.00 | 0.00 | 0.00 | 81 | 1010.2 |
| 20260508065435 | 45 | 254 | 1.0 | 3.0 | 0.00 | 0.00 | 0.00 | 81 | 1010.2 |
| 20260508064443 | 45 | 232 | 1.0 | 4.0 | 0.00 | 0.00 | 0.00 | 81 | 1010.2 |
| 20260508063942 | 45 | 232 | 1.0 | 4.0 | 0.00 | 0.00 | 0.00 | 81 | 1010.2 |
| 20260508063435 | 45 | 225 | 1.0 | 2.0 | 0.00 | 0.00 | 0.00 | 81 | 1010.3 |
| 20260508062930 | 45 | 204 | 1.0 | 4.0 | 0.00 | 0.00 | 0.00 | 82 | 1010.3 |
| 20260508062644 | 45 | 204 | 1.0 | 4.0 | 0.00 | 0.00 | 0.00 | 82 | 1010.3 |
| 20260508061914 | 45 | 244 | 1.0 | 4.0 | 0.00 | 0.00 | 0.00 | 83 | 1010.4 |
| 20260508061412 | 44 | 240 | 0.0 | 2.0 | 0.00 | 0.00 | 0.00 | 82 | 1010.4 |
| 20260508060906 | 44 | 264 | 0.0 | 2.0 | 0.00 | 0.00 | 0.00 | 82 | 1010.3 |
| 20260508060400 | 45 | 279 | 0.0 | 3.0 | 0.00 | 0.00 | 0.00 | 81 | 1010.3 |
| 20260508055854 | 45 | 254 | 0.0 | 3.0 | 0.00 | 0.00 | 0.00 | 81 | 1010.3 |
| 20260508055347 | 45 | 222 | 0.0 | 1.0 | 0.00 | 0.00 | 0.00 | 81 | 1010.3 |
| 20260508054842 | 44 | 222 | 0.0 | 2.0 | 0.00 | 0.00 | 0.00 | 81 | 1010.3 |
| 20260508054329 | 45 | 222 | 0.0 | 2.0 | 0.00 | 0.00 | 0.00 | 81 | 1010.3 |
| 20260508054048 | 45 | 221 | 0.0 | 2.0 | 0.00 | 0.00 | 0.00 | 80 | 1010.3 |
| 20260508053324 | 45 | 232 | 0.0 | 2.0 | 0.00 | 0.00 | 0.00 | 80 | 1010.4 |
| 20260508052817 | 45 | 232 | 1.0 | 2.0 | 0.00 | 0.00 | 0.00 | 80 | 1010.4 |
| 20260508052535 | 45 | 232 | 1.0 | 2.0 | 0.00 | 0.00 | 0.00 | 79 | 1010.4 |
| 20260508051759 | 45 | 186 | 1.0 | 3.0 | 0.00 | 0.00 | 0.00 | 79 | 1010.4 |
| 20260508051300 | 45 | 186 | 1.0 | 3.0 | 0.00 | 0.00 | 0.00 | 78 | 1010.4 |
| 20260508050754 | 46 | 234 | 1.0 | 2.0 | 0.00 | 0.00 | 0.00 | 78 | 1010.4 |
| 20260508050510 | 46 | 234 | 0.0 | 2.0 | 0.00 | 0.00 | 0.00 | 77 | 1010.4 |
| 20260508045741 | 47 | 234 | 1.0 | 2.0 | 0.00 | 0.00 | 0.00 | 76 | 1010.4 |
| 20260508045726 | 47 | 234 | 1.0 | 3.0 | 0.00 | 0.00 | 0.00 | 76 | 1010.5 |
| 20260508044729 | 47 | 239 | 1.0 | 3.0 | 0.00 | 0.00 | 0.00 | 76 | 1010.5 |
| 20260508044217 | 47 | 232 | 1.0 | 3.0 | 0.00 | 0.00 | 0.00 | 75 | 1010.4 |
| 20260508043717 | 47 | 221 | 1.0 | 3.0 | 0.00 | 0.00 | 0.00 | 75 | 1010.5 |
| 20260508043212 | 47 | 236 | 1.0 | 5.0 | 0.00 | 0.00 | 0.00 | 75 | 1010.4 |
| 20260508042706 | 47 | 211 | 1.0 | 5.0 | 0.00 | 0.00 | 0.00 | 75 | 1010.4 |
| 20260508042429 | 48 | 196 | 2.0 | 3.0 | 0.00 | 0.00 | 0.00 | 74 | 1010.4 |
| 20260508041649 | 48 | 217 | 2.0 | 5.0 | 0.00 | 0.00 | 0.00 | 74 | 1010.3 |
| 20260508041148 | 48 | 262 | 2.0 | 5.0 | 0.00 | 0.00 | 0.00 | 73 | 1010.3 |
| 20260508040641 | 48 | 215 | 2.0 | 5.0 | 0.00 | 0.00 | 0.00 | 72 | 1010.3 |
| 20260508040136 | 49 | 208 | 2.0 | 4.0 | 0.00 | 0.00 | 0.00 | 72 | 1010.3 |
| 20260508035626 | 49 | 192 | 2.0 | 7.0 | 0.00 | 0.00 | 0.00 | 71 | 1010.3 |
| 20260508035120 | 49 | 209 | 3.0 | 7.0 | 0.00 | 0.00 | 0.00 | 70 | 1010.3 |
| 20260508034618 | 49 | 196 | 3.0 | 7.0 | 0.00 | 0.00 | 0.00 | 70 | 1010.3 |
| 20260508034118 | 49 | 186 | 2.0 | 7.0 | 0.00 | 0.00 | 0.00 | 69 | 1010.2 |
| 20260508033618 | 50 | 187 | 2.0 | 6.0 | 0.00 | 0.00 | 0.00 | 69 | 1010.3 |
| 20260508033118 | 50 | 197 | 2.0 | 6.0 | 0.00 | 0.00 | 0.00 | 69 | 1010.3 |
| 20260508032618 | 50 | 225 | 2.0 | 5.0 | 0.00 | 0.00 | 0.00 | 69 | 1010.4 |
| 20260508032340 | 50 | 203 | 2.0 | 6.0 | 0.00 | 0.00 | 0.00 | 68 | 1010.4 |
| 20260508031837 | 50 | 217 | 2.0 | 6.0 | 0.00 | 0.00 | 0.00 | 68 | 1010.5 |
| 20260508031121 | 50 | 194 | 2.0 | 6.0 | 0.00 | 0.00 | 0.00 | 67 | 1010.6 |
| 20260508030619 | 50 | 207 | 2.0 | 7.0 | 0.00 | 0.00 | 0.00 | 66 | 1010.6 |
| 20260508030113 | 50 | 207 | 2.0 | 7.0 | 0.00 | 0.00 | 0.00 | 66 | 1010.5 |
| 20260508025601 | 50 | 204 | 2.0 | 7.0 | 0.00 | 0.00 | 0.00 | 66 | 1010.7 |
| 20260508025059 | 50 | 241 | 3.0 | 7.0 | 0.00 | 0.00 | 0.00 | 66 | 1010.8 |
| 20260508024600 | 50 | 196 | 2.0 | 5.0 | 0.00 | 0.00 | 0.00 | 65 | 1010.8 |
| 20260508024100 | 51 | 198 | 2.0 | 5.0 | 0.00 | 0.00 | 0.00 | 65 | 1010.8 |
| 20260508023600 | 51 | 213 | 2.0 | 5.0 | 0.00 | 0.00 | 0.00 | 64 | 1010.7 |
| 20260508023100 | 51 | 204 | 2.0 | 5.0 | 0.00 | 0.00 | 0.00 | 66 | 1010.6 |
| 20260508022600 | 51 | 274 | 2.0 | 5.0 | 0.00 | 0.00 | 0.00 | 64 | 1010.6 |
| 20260508022103 | 51 | 188 | 2.0 | 5.0 | 0.00 | 0.00 | 0.00 | 64 | 1010.4 |
| 20260508021602 | 51 | 179 | 2.0 | 6.0 | 0.00 | 0.00 | 0.00 | 62 | 1010.5 |
| 20260508021057 | 51 | 244 | 2.0 | 6.0 | 0.00 | 0.00 | 0.00 | 60 | 1010.6 |
| 20260508020808 | 51 | 234 | 2.0 | 5.0 | 0.00 | 0.00 | 0.00 | 61 | 1010.7 |
| 20260508020044 | 51 | 205 | 3.0 | 9.0 | 0.00 | 0.00 | 0.00 | 60 | 1010.6 |
| 20260508015544 | 51 | 207 | 4.0 | 11.0 | 0.00 | 0.00 | 0.00 | 59 | 1010.7 |
| 20260508015536 | 52 | 257 | 3.0 | 11.0 | 0.00 | 0.00 | 0.00 | 58 | 1010.7 |
| 20260508014804 | 51 | 194 | 1.0 | 5.0 | 0.00 | 0.00 | 0.00 | 58 | 1010.7 |
| 20260508014045 | 52 | 225 | 1.0 | 3.0 | 0.00 | 0.00 | 0.00 | 57 | 1010.6 |
| 20260508013544 | 52 | 225 | 2.0 | 5.0 | 0.00 | 0.00 | 0.00 | 57 | 1010.4 |
| 20260508013047 | 52 | 246 | 3.0 | 8.0 | 0.00 | 0.00 | 0.00 | 57 | 1010.4 |
| 20260508012547 | 52 | 214 | 4.0 | 8.0 | 0.00 | 0.00 | 0.00 | 55 | 1010.4 |
| 20260508012040 | 52 | 235 | 4.0 | 13.0 | 0.00 | 0.00 | 0.00 | 56 | 1010.3 |
| 20260508011528 | 52 | 190 | 4.0 | 13.0 | 0.00 | 0.00 | 0.00 | 56 | 1010.2 |
| 20260508011505 | 52 | 249 | 3.0 | 7.0 | 0.00 | 0.00 | 0.00 | 53 | 1010.2 |
| 20260508010505 | 52 | 207 | 3.0 | 9.0 | 0.00 | 0.00 | 0.00 | 54 | 1010.1 |
| 20260508005952 | 51 | 271 | 2.0 | 9.0 | 0.00 | 0.00 | 0.00 | 56 | 1010.1 |
| 20260508005441 | 51 | 219 | 1.0 | 2.0 | 0.00 | 0.00 | 0.00 | 57 | 1010.1 |
| 20260508004940 | 51 | 289 | 1.0 | 2.0 | 0.00 | 0.00 | 0.00 | 55 | 1009.9 |
| 20260508004440 | 52 | 289 | 0.0 | 1.0 | 0.00 | 0.00 | 0.00 | 53 | 1009.8 |
| 20260508003940 | 52 | 289 | 0.0 | 2.0 | 0.00 | 0.00 | 0.00 | 52 | 1009.8 |
| 20260508003440 | 52 | 289 | 0.0 | 4.0 | 0.00 | 0.00 | 0.00 | 52 | 1009.8 |
| 20260508002941 | 53 | 289 | 1.0 | 6.0 | 0.00 | 0.00 | 0.00 | 51 | 1009.8 |
| 20260508002440 | 53 | 267 | 1.0 | 6.0 | 0.00 | 0.00 | 0.00 | 50 | 1009.8 |
| 20260508001943 | 53 | 286 | 1.0 | 4.0 | 0.00 | 0.00 | 0.00 | 50 | 1009.8 |
| 20260508001442 | 54 | 271 | 1.0 | 4.0 | 0.00 | 0.00 | 0.00 | 49 | 1009.8 |
| 20260508001158 | 54 | 269 | 1.0 | 4.0 | 0.00 | 0.00 | 0.00 | 49 | 1009.7 |
| 20260508000647 | 54 | 180 | 1.0 | 4.0 | 0.00 | 0.00 | 0.00 | 48 | 1009.7 |
| 20260507235924 | 54 | 251 | 3.0 | 9.0 | 0.00 | 0.00 | 0.00 | 49 | 1009.7 |
| 20260507235647 | 54 | 239 | 4.0 | 10.0 | 0.00 | 0.00 | 0.00 | 48 | 1009.8 |
| 20260507234924 | 54 | 278 | 3.0 | 10.0 | 0.00 | 0.00 | 0.00 | 46 | 1009.8 |
| 20260507234424 | 54 | 282 | 3.0 | 9.0 | 0.00 | 0.00 | 0.00 | 47 | 1009.7 |
| 20260507233924 | 55 | 295 | 4.0 | 9.0 | 0.00 | 0.00 | 0.00 | 47 | 1009.7 |
| 20260507233425 | 55 | 245 | 4.0 | 8.0 | 0.00 | 0.00 | 0.00 | 45 | 1009.7 |
| 20260507232926 | 55 | 277 | 4.0 | 9.0 | 0.00 | 0.00 | 0.00 | 46 | 1009.7 |
| 20260507232650 | 55 | 263 | 4.0 | 9.0 | 0.00 | 0.00 | 0.00 | 46 | 1009.8 |
| 20260507231921 | 55 | 288 | 4.0 | 7.0 | 0.00 | 0.00 | 0.00 | 47 | 1009.9 |
| 20260507231409 | 55 | 279 | 3.0 | 7.0 | 0.00 | 0.00 | 0.00 | 46 | 1009.9 |
| 20260507230900 | 55 | 240 | 3.0 | 7.0 | 0.00 | 0.00 | 0.00 | 50 | 1009.9 |
| 20260507230401 | 55 | 269 | 3.0 | 9.0 | 0.00 | 0.00 | 0.00 | 46 | 1010.0 |
| 20260507225900 | 55 | 295 | 3.0 | 9.0 | 0.00 | 0.00 | 0.00 | 46 | 1009.9 |
| 20260507225358 | 55 | 244 | 3.0 | 9.0 | 0.00 | 0.00 | 0.00 | 47 | 1009.9 |
| 20260507224858 | 55 | 248 | 4.0 | 9.0 | 0.00 | 0.00 | 0.00 | 46 | 1009.9 |
| 20260507224356 | 56 | 259 | 4.0 | 9.0 | 0.00 | 0.00 | 0.00 | 45 | 1010.1 |
| 20260507223856 | 56 | 292 | 4.0 | 11.0 | 0.00 | 0.00 | 0.00 | 44 | 1010.1 |
| 20260507223622 | 56 | 177 | 3.0 | 11.0 | 0.00 | 0.00 | 0.00 | 44 | 1010.1 |
| 20260507223119 | 56 | 283 | 4.0 | 8.0 | 0.00 | 0.00 | 0.00 | 44 | 1010.0 |
| 20260507222359 | 56 | 211 | 6.0 | 16.0 | 0.00 | 0.00 | 0.00 | 44 | 1010.0 |
| 20260507221854 | 57 | 256 | 7.0 | 16.0 | 0.00 | 0.00 | 0.00 | 42 | 1010.1 |
| 20260507221341 | 57 | 250 | 5.0 | 11.0 | 0.00 | 0.00 | 0.00 | 42 | 1010.0 |
| 20260507220842 | 56 | 204 | 5.0 | 14.0 | 0.00 | 0.00 | 0.00 | 42 | 1010.0 |
| 20260507220332 | 56 | 198 | 4.0 | 14.0 | 0.00 | 0.00 | 0.00 | 42 | 1010.1 |
| 20260507215825 | 56 | 234 | 6.0 | 14.0 | 0.00 | 0.00 | 0.00 | 44 | 1010.1 |
| 20260507215314 | 57 | 167 | 6.0 | 15.0 | 0.00 | 0.00 | 0.00 | 43 | 1010.0 |
| 20260507214812 | 56 | 286 | 3.0 | 9.0 | 0.00 | 0.00 | 0.00 | 44 | 1010.1 |
| 20260507214306 | 56 | 200 | 5.0 | 11.0 | 0.00 | 0.00 | 0.00 | 43 | 1010.1 |
| 20260507214018 | 56 | 275 | 6.0 | 14.0 | 0.00 | 0.00 | 0.00 | 42 | 1010.1 |
| 20260507213255 | 57 | 259 | 6.0 | 14.0 | 0.00 | 0.00 | 0.00 | 42 | 1010.2 |
| 20260507212743 | 56 | 308 | 7.0 | 13.0 | 0.00 | 0.00 | 0.00 | 42 | 1010.1 |
| 20260507212242 | 56 | 234 | 5.0 | 12.0 | 0.00 | 0.00 | 0.00 | 42 | 1010.1 |
| 20260507212002 | 56 | 236 | 6.0 | 16.0 | 0.00 | 0.00 | 0.00 | 42 | 1010.1 |
| 20260507211450 | 56 | 226 | 7.0 | 19.0 | 0.00 | 0.00 | 0.00 | 41 | 1010.1 |
| 20260507210724 | 57 | 222 | 6.0 | 19.0 | 0.00 | 0.00 | 0.00 | 41 | 1010.1 |
| 20260507210213 | 56 | 296 | 6.0 | 14.0 | 0.00 | 0.00 | 0.00 | 43 | 1010.1 |